| time (UTC) | temp F | wind direction | speed MPH | gust MPH | rain 1hr in | rain 24hr in | rain mn in | humidity % | barometer mb |
| 20260508225524 | 53 | 131 | 4.0 | 6.0 | 0.00 | 0.00 | 0.00 | 91 | |
| 20260508224528 | 53 | 119 | 2.0 | 3.0 | 0.00 | 0.00 | 0.00 | 91 | |
| 20260508223525 | 53 | 166 | 0.0 | 2.0 | 0.00 | 0.00 | 0.00 | 92 | |
| 20260508222521 | 52 | 290 | 0.0 | 1.0 | 0.00 | 0.00 | 0.00 | 92 | |
| 20260508221526 | 52 | 258 | 2.0 | 4.0 | 0.00 | 0.00 | 0.00 | 92 | |
| 20260508220523 | 52 | 244 | 1.0 | 2.0 | 0.00 | 0.00 | 0.00 | 92 | |
| 20260508215548 | 52 | 232 | 0.0 | 2.0 | 0.00 | 0.00 | 0.00 | 92 | |
| 20260508214523 | 52 | 133 | 1.0 | 2.0 | 0.00 | 0.00 | 0.00 | 92 | |
| 20260508213529 | 52 | 134 | 2.0 | 3.0 | 0.00 | 0.00 | 0.00 | 92 | |
| 20260508212524 | 52 | 120 | 3.0 | 4.0 | 0.00 | 0.00 | 0.00 | 93 | |
| 20260508211521 | 52 | 99 | 3.0 | 4.0 | 0.00 | 0.00 | 0.00 | 93 | |
| 20260508210525 | 52 | 79 | 4.0 | 5.0 | 0.00 | 0.00 | 0.00 | 94 | |
| 20260508205522 | 52 | 90 | 3.0 | 4.0 | 0.00 | 0.00 | 0.00 | 94 | |
| 20260508204527 | 52 | 91 | 3.0 | 4.0 | 0.00 | 0.00 | 0.00 | 94 | |
| 20260508203543 | 52 | 83 | 4.0 | 5.0 | 0.00 | 0.00 | 0.00 | 94 | |
| 20260508202529 | 52 | 78 | 3.0 | 4.0 | 0.00 | 0.00 | 0.00 | 93 | |
| 20260508201524 | 52 | 90 | 3.0 | 4.0 | 0.00 | 0.00 | 0.00 | 94 | |
| 20260508200542 | 51 | 76 | 3.0 | 4.0 | 0.00 | 0.00 | 0.00 | 95 | |
| 20260508195526 | 51 | 77 | 4.0 | 5.0 | 0.00 | 0.00 | 0.00 | 95 | |
| 20260508194522 | 52 | 79 | 4.0 | 5.0 | 0.00 | 0.00 | 0.00 | 95 | |
| 20260508193527 | 51 | 86 | 4.0 | 5.0 | 0.00 | 0.00 | 0.00 | 95 | |
| 20260508192524 | 52 | 95 | 4.0 | 5.0 | 0.00 | 0.00 | 0.00 | 95 | |
| 20260508191548 | 52 | 96 | 5.0 | 6.0 | 0.00 | 0.00 | 0.00 | 94 | |
| 20260508190524 | 52 | 104 | 4.0 | 6.0 | 0.00 | 0.00 | 0.00 | 93 | |
| 20260508185520 | 52 | 109 | 7.0 | 11.0 | 0.00 | 0.00 | 0.00 | 95 | |
| 20260508184525 | 52 | 103 | 6.0 | 8.0 | 0.00 | 0.00 | 0.00 | 95 | |
| 20260508183522 | 52 | 115 | 6.0 | 9.0 | 0.00 | 0.00 | 0.00 | 95 | |
| 20260508182527 | 52 | 112 | 7.0 | 9.0 | 0.00 | 0.00 | 0.00 | 95 | |
| 20260508181523 | 52 | 103 | 6.0 | 7.0 | 0.00 | 0.00 | 0.00 | 95 | |
| 20260508180528 | 52 | 102 | 6.0 | 9.0 | 0.00 | 0.00 | 0.00 | 94 | |
| 20260508175545 | 52 | 105 | 5.0 | 7.0 | 0.00 | 0.00 | 0.00 | 94 | |
| 20260508174521 | 52 | 115 | 4.0 | 6.0 | 0.00 | 0.00 | 0.00 | 94 | |
| 20260508173526 | 52 | 112 | 4.0 | 5.0 | 0.00 | 0.00 | 0.00 | 94 | |
| 20260508172543 | 52 | 137 | 2.0 | 3.0 | 0.00 | 0.00 | 0.00 | 94 | |
| 20260508171526 | 52 | 153 | 3.0 | 4.0 | 0.00 | 0.00 | 0.00 | 95 | |
| 20260508170523 | 51 | 135 | 3.0 | 4.0 | 0.00 | 0.00 | 0.00 | 96 | |
| 20260508165528 | 51 | 150 | 3.0 | 5.0 | 0.00 | 0.00 | 0.00 | 96 | |
| 20260508164524 | 51 | 146 | 3.0 | 4.0 | 0.00 | 0.00 | 0.00 | 96 | |
| 20260508163521 | 51 | 145 | 3.0 | 4.0 | 0.00 | 0.00 | 0.00 | 96 | |
| 20260508162525 | 51 | 151 | 3.0 | 5.0 | 0.00 | 0.00 | 0.00 | 95 | |
| 20260508161541 | 51 | 138 | 3.0 | 5.0 | 0.00 | 0.00 | 0.00 | 94 | |
| 20260508160527 | 51 | 132 | 4.0 | 6.0 | 0.00 | 0.00 | 0.00 | 93 | |
| 20260508155522 | 52 | 157 | 3.0 | 5.0 | 0.00 | 0.00 | 0.00 | 92 | |
| 20260508154528 | 52 | 131 | 5.0 | 9.0 | 0.00 | 0.00 | 0.00 | 91 | |
| 20260508153524 | 52 | 121 | 7.0 | 9.0 | 0.00 | 0.00 | 0.00 | 91 | |
| 20260508152521 | 52 | 123 | 7.0 | 10.0 | 0.00 | 0.00 | 0.00 | 92 | |
| 20260508151525 | 52 | 133 | 9.0 | 12.0 | 0.00 | 0.00 | 0.00 | 93 | |
| 20260508150522 | 51 | 138 | 8.0 | 12.0 | 0.00 | 0.00 | 0.00 | 95 | |
| 20260508145527 | 51 | 141 | 9.0 | 14.0 | 0.00 | 0.00 | 0.00 | 97 | |
| 20260508144523 | 51 | 140 | 8.0 | 11.0 | 0.00 | 0.00 | 0.00 | 97 | |
| 20260508143528 | 51 | 141 | 6.0 | 11.0 | 0.00 | 0.00 | 0.00 | 97 | |
| 20260508142524 | 51 | 140 | 7.0 | 12.0 | 0.00 | 0.00 | 0.00 | 97 | |
| 20260508141520 | 51 | 141 | 7.0 | 10.0 | 0.00 | 0.00 | 0.00 | 97 | |
| 20260508140525 | 52 | 147 | 6.0 | 10.0 | 0.00 | 0.00 | 0.00 | 97 | |
| 20260508135522 | 52 | 149 | 7.0 | 11.0 | 0.00 | 0.00 | 0.00 | 97 | |
| 20260508134528 | 51 | 146 | 6.0 | 10.0 | 0.00 | 0.00 | 0.00 | 97 | |
| 20260508133523 | 51 | 144 | 7.0 | 11.0 | 0.00 | 0.00 | 0.00 | 98 | |
| 20260508132548 | 51 | 142 | 8.0 | 11.0 | 0.00 | 0.00 | 0.00 | 99 | |
| 20260508131544 | 51 | 148 | 6.0 | 10.0 | 0.00 | 0.00 | 0.00 | 99 | |
| 20260508130520 | 52 | 154 | 7.0 | 11.0 | 0.00 | 0.00 | 0.00 | 99 | |
| 20260508125525 | 52 | 164 | 7.0 | 9.0 | 0.00 | 0.00 | 0.00 | 99 | |
| 20260508124522 | 52 | 172 | 6.0 | 9.0 | 0.00 | 0.00 | 0.00 | 99 | |
| 20260508123547 | 52 | 175 | 5.0 | 7.0 | 0.00 | 0.00 | 0.00 | 99 | |
| 20260508122523 | 52 | 176 | 6.0 | 8.0 | 0.00 | 0.00 | 0.00 | 99 | |
| 20260508121529 | 52 | 185 | 6.0 | 9.0 | 0.00 | 0.00 | 0.00 | 99 | |
| 20260508120525 | 52 | 199 | 5.0 | 7.0 | 0.00 | 0.00 | 0.00 | 99 | |
| 20260508115520 | 53 | 191 | 4.0 | 7.0 | 0.00 | 0.00 | 0.00 | 99 | |
| 20260508114525 | 53 | 192 | 4.0 | 6.0 | 0.00 | 0.00 | 0.00 | 99 | |
| 20260508113543 | 53 | 185 | 5.0 | 6.0 | 0.00 | 0.00 | 0.00 | 99 | |
| 20260508112527 | 53 | 186 | 5.0 | 8.0 | 0.00 | 0.00 | 0.00 | 99 | |
| 20260508111523 | 53 | 198 | 4.0 | 6.0 | 0.00 | 0.00 | 0.00 | 99 | |
| 20260508110528 | 53 | 212 | 4.0 | 7.0 | 0.00 | 0.00 | 0.00 | 99 | |
| 20260508105524 | 53 | 213 | 4.0 | 7.0 | 0.00 | 0.00 | 0.00 | 99 | |
| 20260508104521 | 53 | 216 | 5.0 | 8.0 | 0.00 | 0.00 | 0.00 | 99 | |
| 20260508103525 | 53 | 235 | 8.0 | 11.0 | 0.00 | 0.00 | 0.00 | 99 | |
| 20260508102542 | 53 | 234 | 7.0 | 10.0 | 0.00 | 0.00 | 0.00 | 99 | |
| 20260508101527 | 53 | 224 | 6.0 | 10.0 | 0.00 | 0.00 | 0.00 | 99 | |
| 20260508100523 | 53 | 227 | 8.0 | 12.0 | 0.00 | 0.00 | 0.00 | 99 | |
| 20260508095528 | 53 | 219 | 8.0 | 14.0 | 0.00 | 0.00 | 0.00 | 99 | |
| 20260508094524 | 53 | 216 | 7.0 | 10.0 | 0.00 | 0.00 | 0.00 | 99 | |
| 20260508093540 | 53 | 215 | 7.0 | 10.0 | 0.00 | 0.00 | 0.00 | 99 | |
| 20260508092525 | 54 | 219 | 10.0 | 16.0 | 0.00 | 0.00 | 0.00 | 99 | |
| 20260508091522 | 54 | 230 | 10.0 | 15.0 | 0.00 | 0.00 | 0.00 | 98 | |
| 20260508090527 | 53 | 223 | 8.0 | 12.0 | 0.00 | 0.00 | 0.00 | 98 | |
| 20260508085524 | 53 | 209 | 7.0 | 11.0 | 0.00 | 0.00 | 0.00 | 98 | |
| 20260508084529 | 53 | 201 | 8.0 | 11.0 | 0.00 | 0.00 | 0.00 | 98 | |
| 20260508083524 | 54 | 195 | 9.0 | 13.0 | 0.00 | 0.00 | 0.00 | 97 | |
| 20260508082520 | 54 | 216 | 9.0 | 15.0 | 0.00 | 0.00 | 0.00 | 97 | |
| 20260508081545 | 54 | 216 | 9.0 | 14.0 | 0.00 | 0.00 | 0.00 | 97 | |
| 20260508080542 | 54 | 217 | 10.0 | 15.0 | 0.00 | 0.00 | 0.00 | 96 | |
| 20260508075527 | 54 | 209 | 11.0 | 18.0 | 0.00 | 0.00 | 0.00 | 95 | |
| 20260508074544 | 55 | 212 | 13.0 | 20.0 | 0.00 | 0.00 | 0.00 | 92 | |
| 20260508073528 | 56 | 228 | 13.0 | 19.0 | 0.00 | 0.00 | 0.00 | 92 | |
| 20260508072524 | 55 | 238 | 11.0 | 16.0 | 0.00 | 0.00 | 0.00 | 94 | |
| 20260508071541 | 55 | 241 | 10.0 | 15.0 | 0.00 | 0.00 | 0.00 | 95 | |
| 20260508070526 | 55 | 236 | 12.0 | 17.0 | 0.00 | 0.00 | 0.00 | 95 | |
| 20260508065521 | 56 | 238 | 12.0 | 16.0 | 0.00 | 0.00 | 0.00 | 95 | |
| 20260508064526 | 55 | 222 | 12.0 | 17.0 | 0.00 | 0.00 | 0.00 | 98 | |
| 20260508063524 | 55 | 223 | 10.0 | 15.0 | 0.00 | 0.00 | 0.00 | 98 | |
| 20260508062528 | 54 | 228 | 10.0 | 15.0 | 0.00 | 0.00 | 0.00 | 98 | |
| 20260508061524 | 54 | 219 | 10.0 | 15.0 | 0.00 | 0.00 | 0.00 | 98 | |
| 20260508060521 | 53 | 216 | 13.0 | 18.0 | 0.00 | 0.00 | 0.00 | 98 | |
| 20260508055526 | 54 | 224 | 12.0 | 20.0 | 0.00 | 0.00 | 0.00 | 97 | |
| 20260508054522 | 54 | 229 | 14.0 | 22.0 | 0.00 | 0.00 | 0.00 | 97 | |
| 20260508053526 | 56 | 213 | 15.0 | 21.0 | 0.00 | 0.00 | 0.00 | 92 | |
| 20260508052523 | 56 | 228 | 11.0 | 17.0 | 0.00 | 0.00 | 0.00 | 96 | |
| 20260508051548 | 55 | 204 | 12.0 | 17.0 | 0.00 | 0.00 | 0.00 | 95 | |
| 20260508050525 | 56 | 211 | 14.0 | 20.0 | 0.00 | 0.00 | 0.00 | 89 | |
| 20260508045542 | 55 | 220 | 12.0 | 18.0 | 0.00 | 0.00 | 0.00 | 91 | |
| 20260508044526 | 57 | 224 | 13.0 | 22.0 | 0.00 | 0.00 | 0.00 | 86 | |
| 20260508043522 | 57 | 228 | 12.0 | 21.0 | 0.00 | 0.00 | 0.00 | 84 | |
| 20260508042527 | 56 | 227 | 10.0 | 16.0 | 0.00 | 0.00 | 0.00 | 89 | |
| 20260508041523 | 55 | 220 | 12.0 | 19.0 | 0.00 | 0.00 | 0.00 | 91 | |
| 20260508040527 | 55 | 222 | 10.0 | 15.0 | 0.00 | 0.00 | 0.00 | 90 | |
| 20260508035524 | 55 | 227 | 14.0 | 21.0 | 0.00 | 0.00 | 0.00 | 90 | |
| 20260508034521 | 56 | 225 | 13.0 | 20.0 | 0.00 | 0.00 | 0.00 | 86 | |
| 20260508033525 | 56 | 236 | 13.0 | 18.0 | 0.00 | 0.00 | 0.00 | 84 | |
| 20260508032522 | 55 | 235 | 10.0 | 17.0 | 0.00 | 0.00 | 0.00 | 89 | |
| 20260508031526 | 54 | 238 | 13.0 | 19.0 | 0.00 | 0.00 | 0.00 | 93 | |
| 20260508030524 | 55 | 228 | 12.0 | 20.0 | 0.00 | 0.00 | 0.00 | 92 | |
| 20260508025527 | 54 | 214 | 11.0 | 15.0 | 0.00 | 0.00 | 0.00 | 90 | |
| 20260508024523 | 55 | 236 | 13.0 | 19.0 | 0.00 | 0.00 | 0.00 | 92 | |
| 20260508023520 | 54 | 236 | 12.0 | 16.0 | 0.00 | 0.00 | 0.00 | 95 | |
| 20260508022525 | 53 | 231 | 12.0 | 19.0 | 0.00 | 0.00 | 0.00 | 96 | |
| 20260508021521 | 53 | 230 | 11.0 | 16.0 | 0.00 | 0.00 | 0.00 | 96 | |
| 20260508020527 | 53 | 224 | 9.0 | 14.0 | 0.00 | 0.00 | 0.00 | 96 | |
| 20260508015523 | 53 | 215 | 11.0 | 15.0 | 0.00 | 0.00 | 0.00 | 94 | |
| 20260508014549 | 53 | 220 | 13.0 | 18.0 | 0.00 | 0.00 | 0.00 | 92 | |
| 20260508013546 | 54 | 226 | 15.0 | 21.0 | 0.00 | 0.00 | 0.00 | 86 | |
| 20260508012519 | 54 | 225 | 13.0 | 21.0 | 0.00 | 0.00 | 0.00 | 84 | |
| 20260508011526 | 55 | 215 | 12.0 | 18.0 | 0.00 | 0.00 | 0.00 | 82 | |
| 20260508010522 | 55 | 225 | 13.0 | 18.0 | 0.00 | 0.00 | 0.00 | 82 | |
| 20260508005526 | 54 | 225 | 14.0 | 20.0 | 0.00 | 0.00 | 0.00 | 83 | |
| 20260508004522 | 54 | 224 | 14.0 | 23.0 | 0.00 | 0.00 | 0.00 | 83 | |
| 20260508003528 | 54 | 231 | 15.0 | 20.0 | 0.00 | 0.00 | 0.00 | 86 | |
| 20260508002524 | 54 | 228 | 14.0 | 19.0 | 0.00 | 0.00 | 0.00 | 85 | |
| 20260508001520 | 54 | 219 | 11.0 | 17.0 | 0.00 | 0.00 | 0.00 | 85 | |
| 20260508000526 | 54 | 234 | 16.0 | 20.0 | 0.00 | 0.00 | 0.00 | 83 | |
| 20260507235521 | 54 | 237 | 12.0 | 18.0 | 0.00 | 0.00 | 0.00 | 82 | |
| 20260507234526 | 54 | 233 | 13.0 | 20.0 | 0.00 | 0.00 | 0.00 | 83 | |
| 20260507233522 | 54 | 233 | 12.0 | 16.0 | 0.00 | 0.00 | 0.00 | 84 | |
| 20260507232527 | 53 | 240 | 12.0 | 17.0 | 0.00 | 0.00 | 0.00 | 84 | |
| 20260507231524 | 53 | 243 | 12.0 | 15.0 | 0.00 | 0.00 | 0.00 | 83 | |
| 20260507230520 | 53 | 241 | 12.0 | 16.0 | 0.00 | 0.00 | 0.00 | 82 |